Location: Columbia, SC
(34.0000°N, 81.0300°W)
Time: 00:37:26
(UTC-04:00)

Tiangong 1 - Visible Passes

Search period start: 03 September 2014 00:00
Search period end: 13 September 2014 00:00
Orbit: 367 x 373 km, 42.8° (Epoch: 02 September)

Date Brightness Start Highest point End Pass type
(mag) Time Alt. Az. Time Alt. Az. Time Alt. Az.
03 Sep 3.3 20:23:31 10° WNW 20:25:55 21° NNW 20:28:19 10° NE visible
03 Sep 4.2 22:01:01 10° NW 22:01:47 13° NNW 22:01:47 13° NNW visible
04 Sep 3.6 20:56:29 10° NW 20:58:27 16° N 21:00:22 10° NE visible
05 Sep 3.4 21:28:48 10° NW 21:30:47 17° N 21:30:47 17° N visible
06 Sep 3.5 20:24:19 10° NW 20:26:17 16° N 20:28:15 10° NE visible
06 Sep 4.2 22:00:34 10° NW 22:01:08 14° NW 22:01:08 14° NW visible
07 Sep 2.9 20:56:16 10° NW 20:58:39 20° NNE 20:59:31 18° NE visible
08 Sep 2.8 21:27:52 10° NW 21:29:47 29° NNW 21:29:47 29° NNW visible
09 Sep 2.6 20:23:28 10° NW 20:26:04 25° NNE 20:28:08 13° ENE visible
09 Sep 4.4 21:59:36 10° WNW 22:00:02 13° WNW 22:00:02 13° WNW visible
10 Sep 1.1 20:54:58 10° NW 20:58:00 61° NNE 20:58:23 54° ENE visible
11 Sep 3.0 21:26:48 10° WNW 21:28:38 27° WSW 21:28:38 27° WSW visible
12 Sep 0.9 20:21:53 10° WNW 20:24:57 84° SSW 20:27:02 18° ESE visible
